Location: Eckley Miners' Village
(40.9930°N, 75.8630°W)
Time: 01:00:15
(UTC-04:00)

Vanguard 1 Rocket - Pass Details

Date: 15 March 2026
Orbit: 654 x 4213 km, 34.3° (Epoch: 18 April)

Event Time Altitude Azimuth Distance (km) Brightness Sun altitude
Rises 11:20:41 0° 264° (W) 2,967 9.8 40.1°
Reaches altitude 10° 11:23:01 10° 253° (WSW) 2,071 9.2 40.4°
Maximum altitude 11:27:01 32° 189° (S) 1,263 9.2 40.8°
Drops below altitude 10° 11:32:14 10° 127° (SE) 2,724 10.9 41.4°
Sets 11:35:47 0° 119° (ESE) 4,101 11.4 41.8°
